Regional Weather Roundup
Issued by NWS Green Bay, WI

Home | Current Version | Previous Version | Graphics & Text | Print | Product List | Glossary Off
Versions: 1 2 3 4 5 6 7 8 9 10 11 12 13 14 15 16 17 18 19 20 21 22 23 24 25 26 27 28 29 30 31 32 33 34 35 36 37 38 39 40 41 42 43 44 45 46 47 48 49 50

000
ASUS43 KGRB 121811
RWRGRB

NORTH-CENTRAL AND NORTHEAST WISCONSIN REGIONAL WEATHER ROUNDUP
NATIONAL WEATHER SERVICE GREEN BAY WI
1200 PM CST FRI FEB 12 2016

WIZ005-009-010>012-018-019-121900-
NORTH CENTRAL WISCONSIN

CITY           SKY/WX    TMP DP  RH WIND       PRES   REMARKS
IRONWOOD       CLOUDY     1  -4  78 NW20G29   30.22R VSB<1/4 WCI -20
MANITOWISH WTR CLOUDY     1  -9  61 NW16G24   30.16R HAZE    WCI -18
ARBOR VITAE    PTSUNNY    4  -7  58 N18G30    30.15R HAZE    WCI -16
EAGLE RIVER    HAZE       5  -6  61 NW21G30   30.10R VSB 1   WCI -16
LAND O LAKES   CLOUDY     4  -8  57 NW15G25   30.11R HAZE    WCI -15
RHINELANDER    LGT SNOW   4  -7  60 NW17G30   30.12R WCI -16
PHILLIPS       CLOUDY     3  -9  56 NW16G23   30.21R WCI -16
ANTIGO         CLOUDY     8  -6  55 NW21      30.10R WCI -12
TOMAHAWK       PTSUNNY    7  -8  50 NW15G24   30.16S WCI -11
MERRILL        MOSUNNY    8  -8  47 NW17G24   30.17R WCI -11
$$

WIZ013-073-121900-
NORTHEAST WISCONSIN

CITY           SKY/WX    TMP DP  RH WIND       PRES   REMARKS
IRON MOUNTAIN  HVY SNOW   8  -2  63 N24G35    30.07R VSB 1/4 WCI -13
MARINETTE      CLOUDY    16   0  48 NW14G22   30.08S WCI   1
OCONTO         CLOUDY    15  -3  45 N12G18    30.11R WCI   2
$$

WIZ017-030-035>037-045-121900-
CENTRAL WISCONSIN

CITY           SKY/WX    TMP DP  RH WIND       PRES   REMARKS
MEDFORD        MOSUNNY    6  -6  57 NW21G28   30.18R HAZE    WCI -15
WAUSAU         PTSUNNY   10  -6  48 NW14G28   30.16R WCI  -6
MOSINEE        MOSUNNY    9  -4  56 NW21G31   30.18R WCI -11
MARSHFIELD     PTSUNNY    9  -6  50 NW23G30   30.19R WCI -11
WISC RAPIDS    PTSUNNY   11  -6  46 NW23G36   30.21R WCI  -9
STEVENS POINT  CLOUDY     9  -7  48 NW16G23   30.18R WCI  -9
WAUPACA        MOSUNNY   17  -4  38 NW13G26   30.17R WCI   3
SHAWANO        PTSUNNY   16  -4  42 NW14G22   30.14R WCI   1
CLINTONVILLE   PTSUNNY   14  -4  44 N14G25    30.14S WCI  -1
WAUTOMA        SUNNY     14  -6  40 NW21G28   30.19R WCI  -4
$$

WIZ038-039-048-051-121900-
FOX VALLEY

CITY           SKY/WX    TMP DP  RH WIND       PRES   REMARKS
NWS GREEN BAY  MOSUNNY   14   0  53 NW17G28   30.12R WCI  -3
APPLETON       MOSUNNY   14  -6  41 MISG      30.11R
OSHKOSH        SUNNY     15  -1  49 NW21G28   30.13S WCI  -2
FOND DU LAC    MOSUNNY   16   1  51 NW21G29   30.13S WCI  -1
$$

WIZ022-050-052-121900-
EAST CENTRAL WISCONSIN

CITY           SKY/WX    TMP DP  RH WIND       PRES   REMARKS
EPHRAIM        MOCLDY    15  -2  47 N17G25    30.05R WCI  -2
STURGEON BAY   PTSUNNY   16  -2  45 NW17G25   30.09S WCI   0
MANITOWOC      PTSUNNY   17   2  51 NW14      30.11R WCI   3
SHEBOYGAN      MOSUNNY   16   2  54 W18       30.11S WCI   0
$$

LMZ563-521-522-541>543-121900-
LAKESHORE

STATION/POSITION TIME  TEMP    WIND        PRES    VSBY  WAVE
                       AIR SEA DIR/SP/G                  HT/PER
                 (UTC) (F)     (DEG/KT/KT) (MB)    (MI)  (FT/S)
SHEBOYGAN LKSHOR 1800   16     290/ 21/ 27 1021.2R
KEWAUNEE LKSHORE 1700   16     300/ 14/ 20 1017.9R
ALGOMA MARINA    1741          320/ 18/ 24   N/A
SISTER BAY LKSHO 1735   14      20/ 25/ 29   N/A
CHAMBERS ISLAND  1700   17     290/  8/ 19 1018.3R
MENOMINEE LKSHOR 1700   15     300/ 15     1017.3R
$$



USA.gov is the U.S. government's official web portal to all federal, state and local government web resources and services.